Temperature
9 10 10 9 9 9 8 8 8 10 11 11 11 10 11 11 10 10 9 9 8 8 8 7 7 7 7 7 7 7 7 6 6 6 6 5 5 5 5 5 5 4 4 4
8 9 9 8 9 9 9 9 9 9 10 11 11 11 11 10 10 9 9 9 8 8 7 7 7 7 7 7 7 6 6 6 6 5 5 5 5 5 4 4 4 4 4 4
7 9 8 7 9 9 9 9 9 9 10 10 10 10 10 10 9 9 9 8 8 7 7 7 7 7 6 6 6 6 6 5 5 5 5 5 4 4 4 4 4 4 3 3
6 7 7 10 10 10 10 10 10 10 10 10 10 9 9 9 9 8 8 8 7 7 7 7 7 6 6 6 5 5 5 5 5 4 4 4 4 4 4 3 3 3 3 3
6 6 8 10 9 9 9 9 10 9 9 9 9 9 8 9 8 8 8 8 7 7 7 7 6 6 5 5 5 5 5 4 4 4 4 4 4 4 3 3 3 3 2 2
6 7 7 10 9 9 9 8 9 9 8 8 8 6 6 8 8 8 7 7 7 7 6 6 6 5 5 5 5 4 4 4 4 4 3 3 3 3 3 2 2 2 2 2
5 6 7 9 8 8 8 8 9 9 8 8 7 7 7 7 7 7 7 7 6 6 6 6 5 5 5 5 4 4 4 4 3 3 3 3 2 2 2 2 2 2 2 2
5 5 6 7 7 7 8 8 8 8 8 8 7 7 7 7 6 6 6 6 6 6 5 5 5 5 5 4 4 4 3 3 3 3 2 2 2 2 2 1 1 1 1 1
7 7 8 8 8 8 8 8 7 7 7 7 7 6 6 6 6 6 6 5 5 5 5 5 4 4 4 4 3 3 3 3 3 2 2 2 1 1 1 1 1 1 0 0
6 7 8 8 8 8 8 7 7 7 7 6 6 6 6 5 5 5 5 5 5 5 4 4 4 4 4 3 3 3 2 2 2 2 2 1 1 1 1 0 0 0 -0 -0
5 6 7 8 8 7 7 7 6 6 6 6 6 5 5 5 5 5 4 4 4 4 4 4 4 3 3 3 2 2 2 2 2 1 1 1 1 0 0 0 -0 -1 -1 -1
5 6 6 7 7 7 6 6 6 6 5 5 5 5 4 4 4 4 4 4 3 3 3 3 3 3 2 2 2 2 1 1 1 1 1 0 0 -0 -0 -0 -1 -1 -1 -2
6 6 6 6 6 6 5 5 5 5 4 4 4 4 4 4 3 3 3 3 3 3 3 2 2 2 2 2 1 1 1 1 1 0 0 -0 -0 -1 -1 -1 -1 -1 -2 -2
5 5 5 5 5 4 4 4 4 4 4 3 3 3 3 3 3 3 2 2 2 2 2 2 2 1 1 1 1 1 1 0 0 -0 -0 -1 -1 -1 -2 -2 -2 -2 -2 -2
4 4 4 4 4 3 3 3 3 3 3 2 2 2 2 2 2 2 2 2 1 1 1 1 1 1 1 1 1 0 0 0 -0 -0 -1 -1 -1 -2 -2 -2 -3 -3 -2 -3
3 3 3 3 2 2 2 2 2 2 2 2 1 1 1 1 1 1 1 1 1 1 1 1 1 1 1 0 0 0 -0 -0 -1 -1 -1 -1 -2 -2 -2 -3 -3 -3 -3 -3
2 1 1 1 1 1 1 1 1 1 1 1 1 1 1 0 1 1 1 1 0 0 0 0 0 0 0 -0 -0 -0 -1 -1 -1 -1 -2 -2 -2 -3 -3 -3 -4 -4 -4 -4
1 1 1 0 0 0 0 0 0 0 0 0 0 -0 -0 -0 -0 0 0 -0 -0 -0 0 -0 -0 -0 -0 -0 -1 -1 -1 -1 -2 -2 -2 -2 -3 -3 -3 -4 -4 -4 -4 -4
0 0 -0 -0 -0 -0 -0 -0 -0 -0 -0 -0 -0 -1 -1 -1 -1 -1 -1 -1 -1 -0 -0 -0 -1 -1 -1 -1 -1 -2 -2 -2 -2 -2 -3 -3 -3 -3 -4 -4 -5 -5 -5 -5
-0 -0 -1 -1 -1 -1 -1 -1 -1 -1 -1 -1 -1 -1 -1 -1 -1 -1 -1 -1 -1 -1 -1 -1 -1 -1 -1 -2 -2 -2 -2 -2 -3 -3 -3 -3 -4 -4 -5 -5 -5 -5 -5 -5
-1 -1 -1 -1 -1 -1 -1 -1 -1 -1 -1 -1 -1 -1 -1 -1 -1 -2 -2 -1 -1 -1 -2 -2 -2 -2 -2 -2 -2 -2 -3 -3 -3 -3 -4 -4 -4 -5 -5 -5 -5 -5 -5 -6
-1 -1 -1 -1 -1 -1 -1 -1 -1 -1 -1 -1 -2 -2 -2 -2 -2 -2 -2 -2 -2 -2 -2 -2 -2 -2 -3 -3 -3 -3 -3 -4 -4 -4 -4 -4 -5 -5 -5 -6 -6 -6 -6 -6
-2 -2 -2 -2 -2 -2 -2 -2 -2 -2 -2 -2 -2 -2 -2 -2 -2 -2 -2 -2 -2 -2 -3 -3 -3 -3 -3 -3 -3 -4 -4 -4 -4 -4 -5 -5 -5 -5 -6 -6 -6 -6 -6 -6
-2 -2 -2 -2 -2 -2 -2 -2 -2 -2 -2 -2 -2 -3 -3 -3 -3 -3 -3 -3 -3 -3 -3 -3 -3 -3 -4 -4 -4 -4 -4 -5 -5 -5 -5 -5 -6 -6 -6 -7 -7 -7 -7 -7
-3 -3 -3 -3 -3 -3 -3 -3 -3 -3 -3 -3 -3 -3 -3 -3 -3 -3 -3 -3 -3 -3 -3 -4 -4 -4 -4 -4 -4 -5 -5 -5 -5 -5 -6 -6 -6 -6 -7 -7 -7 -7 -7 -7
-3 -3 -3 -3 -3 -3 -3 -3 -3 -3 -3 -3 -3 -3 -3 -4 -4 -4 -4 -4 -4 -4 -4 -4 -4 -5 -5 -5 -5 -5 -5 -5 -6 -6 -6 -6 -6 -7 -7 -7 -7 -7 -7 -7
-4 -4 -4 -4 -4 -4 -4 -4 -4 -4 -4 -4 -4 -4 -4 -4 -4 -4 -4 -4 -4 -4 -5 -5 -5 -5 -5 -5 -6 -6 -6 -6 -6 -6 -6 -7 -7 -7 -7 -7 -7 -7 -7 -7
Wind_Speed
8 8 6 7 8 8 10 10 8 7 7 6 3 2 3 4 4 5 6 6 6 6 6 6 6 5 5 4 4 4 3 3 2 2 2 2 2 2 2 3 3 4 4 4
6 7 7 10 11 11 12 12 13 13 13 6 1 1 2 3 4 4 5 5 6 6 6 5 5 5 4 4 4 3 3 3 2 2 2 2 2 2 3 3 3 3 4 5
4 3 5 8 9 12 9 9 9 11 8 3 2 1 2 2 3 3 3 4 4 4 5 5 5 4 4 4 4 3 3 3 2 2 2 3 3 3 3 4 4 4 5 5
4 3 7 6 0 3 7 9 9 8 5 2 1 0 1 1 3 3 3 3 3 3 3 3 3 3 3 3 4 4 3 3 3 3 3 2 3 4 4 4 4 4 5 5
3 5 9 5 3 3 4 5 4 6 5 2 2 2 2 1 2 3 2 2 3 3 3 3 4 4 4 3 3 3 3 3 3 3 3 3 4 4 4 3 4 5 5 5
4 5 6 2 2 2 1 4 1 1 2 1 2 1 2 0 2 1 2 2 2 3 3 3 3 4 4 4 3 4 4 3 3 3 3 4 5 5 4 4 5 5 5 6
8 7 7 1 4 3 2 3 1 1 1 1 2 2 1 2 2 2 2 2 3 3 2 3 3 4 4 4 4 4 3 3 3 3 4 5 4 4 4 4 4 5 6 6
6 7 8 4 5 4 2 1 1 1 1 1 1 0 1 1 1 2 2 2 2 2 2 2 4 4 4 4 4 3 3 3 4 4 4 3 4 4 4 4 4 5 5 6
7 7 2 5 4 2 1 2 2 2 2 2 2 2 2 2 2 2 3 3 3 3 3 3 4 5 5 4 3 3 3 4 4 4 4 4 4 5 4 4 4 5 5 6
6 6 4 4 4 4 3 3 3 3 3 3 4 4 4 3 3 3 3 3 3 4 4 4 4 5 5 4 4 4 4 4 4 4 4 4 4 4 4 4 5 5 5 6
8 8 7 6 5 5 4 3 4 4 4 5 5 5 4 4 4 3 3 3 3 4 5 5 4 4 4 4 4 4 4 4 4 4 4 4 4 4 5 6 6 7 6 6
9 6 5 5 3 3 4 5 5 5 6 5 5 5 5 5 4 4 4 3 3 4 5 5 4 4 4 4 4 4 4 4 4 3 3 4 4 5 8 8 11 12 11 10
9 7 7 7 5 4 4 5 5 5 6 6 5 5 5 4 4 4 4 4 5 5 5 4 4 4 5 4 5 5 5 5 4 4 4 4 4 5 6 8 10 11 12 13
6 6 7 6 6 5 5 5 5 5 4 4 4 3 3 3 3 4 4 4 4 4 4 4 4 5 5 4 5 5 5 5 5 4 4 4 5 5 5 6 8 7 9 13
6 6 7 6 5 5 4 4 4 4 4 3 3 3 3 4 5 4 3 3 2 3 4 4 5 5 4 4 4 5 5 4 4 4 4 4 5 5 5 6 7 8 7 8
6 6 6 6 6 6 5 5 5 5 4 4 4 4 4 4 4 3 3 3 4 5 5 5 5 5 3 3 4 4 4 7 6 4 4 4 5 5 6 6 7 7 8 7
4 5 5 6 7 6 5 5 5 5 4 4 4 3 3 2 3 3 4 4 4 5 5 5 5 4 4 4 5 4 4 5 7 5 5 5 5 6 6 7 7 8 8 9
4 5 5 5 5 5 4 4 3 3 3 3 2 2 2 3 4 4 3 2 2 3 4 4 4 4 4 4 4 4 4 4 4 5 5 5 6 6 6 7 8 9 8 9
3 3 3 3 3 3 3 3 2 2 2 1 1 2 3 3 3 3 2 2 3 5 5 4 5 4 4 5 5 4 4 5 5 5 5 8 8 6 6 7 8 8 8 8
3 2 2 2 2 2 2 2 2 2 1 1 1 1 2 3 3 3 3 3 4 4 4 4 3 3 4 5 5 4 5 5 6 6 6 6 6 7 7 8 8 8 8 8
3 3 3 2 2 2 1 1 1 2 2 1 1 3 3 4 3 3 3 5 5 4 4 5 4 3 3 4 5 4 4 5 6 6 6 7 7 7 8 8 8 8 8 8
2 2 3 2 2 3 2 1 1 2 2 2 3 3 3 4 4 4 5 5 5 5 4 3 3 5 6 6 4 4 5 6 6 6 6 7 7 7 8 8 8 8 7 7
3 3 3 3 3 3 3 3 2 2 3 4 4 4 4 5 4 4 6 4 3 6 4 4 6 8 9 6 4 5 6 7 7 7 7 7 7 7 7 8 8 7 7 7
3 3 3 3 3 3 4 4 3 3 4 4 5 5 5 5 5 4 5 7 7 7 5 7 10 11 10 5 5 6 6 7 7 6 6 6 6 7 7 7 7 7 7 8
4 4 4 4 4 4 5 5 4 4 4 4 5 5 4 4 5 5 5 5 8 8 6 8 11 12 7 5 5 6 6 6 7 6 6 6 7 7 7 7 7 7 7 7
4 4 4 4 4 4 4 4 4 4 4 4 5 4 4 4 5 5 5 6 7 9 7 5 6 7 5 5 6 6 6 7 8 7 6 6 7 7 7 7 8 7 7 7
4 4 4 4 4 4 4 4 4 5 5 5 6 5 5 5 4 5 5 5 5 5 5 5 5 5 5 5 6 6 6 6 6 6 6 6 6 6 6 7 6 6 6 6
Wind_Direction
272 281 275 256 245 224 219 224 236 256 267 271 252 208 194 183 177 175 178 178 178 177 171 163 162 163 162 162 159 163 171 183 198 198 199 195 206 215 221 231 239 241 246 250
273 252 257 264 249 237 236 238 248 267 276 271 282 158 184 185 183 190 186 183 180 173 166 166 166 168 166 168 165 164 178 192 191 205 207 205 218 227 234 242 246 248 252 254
271 268 294 265 237 221 222 222 226 243 254 288 299 259 227 210 200 199 185 176 177 175 171 168 169 169 173 172 161 166 184 189 192 207 218 218 221 233 240 242 246 252 252 252
276 305 256 244 99 191 223 241 230 247 273 295 318 346 311 234 206 207 195 177 172 168 163 159 153 151 154 155 161 174 185 196 201 206 220 226 229 237 243 242 245 249 252 252
240 262 274 253 206 175 208 265 232 239 258 279 26 10 308 253 197 187 184 172 169 163 152 151 152 154 152 163 171 180 193 205 210 209 219 232 240 247 247 247 254 254 256 256
230 243 255 250 110 75 89 272 306 234 260 212 108 250 255 117 92 88 108 118 126 124 125 142 158 151 159 180 186 199 203 207 209 211 223 235 241 248 249 245 250 256 261 256
231 244 263 227 141 127 181 251 22 37 26 124 193 219 205 95 90 96 104 108 117 127 146 170 164 157 179 194 208 204 194 206 219 222 228 236 243 247 250 249 253 258 265 267
204 228 252 164 149 189 221 29 15 358 336 260 247 320 52 87 140 141 141 147 151 160 185 188 174 172 194 211 207 187 193 214 228 232 235 237 240 251 248 244 254 263 268 275
208 221 235 170 204 236 10 315 317 314 301 267 253 246 238 232 215 202 191 190 188 189 200 207 195 184 204 215 190 186 206 228 236 236 237 235 236 246 253 249 250 260 261 270
278 272 274 244 243 249 248 253 274 280 275 259 257 252 242 229 228 224 218 209 203 200 211 220 212 204 209 206 190 195 220 235 236 237 245 245 244 241 244 247 251 257 261 268
268 279 293 274 259 263 265 263 268 268 260 253 257 255 246 246 241 235 232 225 213 215 222 226 218 216 214 204 192 207 224 235 240 239 242 248 250 245 248 247 247 255 260 260
254 261 263 277 293 289 271 265 265 268 270 259 243 244 246 246 242 235 227 222 224 227 230 231 222 223 221 209 201 210 229 237 239 242 247 249 259 278 267 261 271 270 270 271
260 273 272 276 288 297 288 283 276 266 262 264 255 242 240 244 241 231 229 227 227 229 230 230 228 231 228 215 206 211 223 232 237 240 245 251 254 264 285 291 282 280 279 279
277 284 279 275 276 279 277 280 279 273 266 258 256 253 242 245 244 240 239 234 227 228 234 232 233 237 230 211 207 217 225 233 235 238 243 247 251 256 264 279 292 293 286 282
269 266 267 281 286 285 282 277 276 271 265 262 251 245 243 243 244 245 244 234 229 237 241 238 239 241 227 212 212 223 230 237 238 240 244 248 254 259 263 268 274 282 287 289
275 272 268 269 272 274 272 266 262 262 258 259 255 248 247 244 247 249 245 229 230 239 241 239 242 241 226 221 223 231 238 243 244 243 249 253 256 259 263 266 271 275 278 282
270 271 273 276 275 275 268 264 263 263 257 255 256 257 259 257 257 254 250 241 236 242 242 240 247 248 232 225 223 229 236 246 249 250 248 252 256 258 261 266 271 275 276 279
265 265 268 272 277 282 285 281 274 272 268 268 267 258 250 246 250 256 260 260 273 278 267 248 245 244 237 231 228 229 234 242 242 244 250 253 260 260 264 267 271 275 280 282
297 295 299 299 291 279 280 288 291 285 283 269 250 251 256 258 261 263 268 266 267 275 277 256 247 245 245 243 239 234 236 246 252 252 252 263 270 267 268 270 272 274 277 281
331 335 336 332 335 316 302 308 314 316 316 305 280 281 284 282 276 271 269 266 262 258 266 273 271 262 255 250 245 236 239 247 253 258 259 260 265 269 270 270 272 273 274 275
329 334 337 335 332 328 308 297 303 304 306 291 257 259 268 278 275 267 268 280 283 270 269 272 268 262 258 257 256 245 246 252 257 259 262 265 268 271 272 272 274 275 275 275
308 314 316 312 310 314 312 302 280 281 290 286 279 273 276 282 283 278 262 257 270 277 278 272 268 269 271 273 259 258 260 261 264 265 263 265 268 272 275 276 277 278 276 273
301 301 304 304 298 296 303 300 283 272 271 271 271 272 270 271 267 270 283 279 271 282 284 274 280 285 287 281 264 264 265 266 267 266 266 267 268 271 275 276 275 276 277 277
305 306 301 299 300 298 295 291 286 276 270 270 267 264 265 276 280 265 260 280 288 289 282 283 290 291 291 276 266 266 266 267 268 267 268 271 271 272 273 274 276 276 277 277
294 293 292 293 294 286 281 284 287 284 280 280 278 272 260 250 260 276 280 281 288 292 286 288 293 294 289 272 269 269 269 269 272 275 271 274 275 275 275 275 276 278 278 276
283 284 283 277 273 276 282 284 283 284 284 287 288 282 275 268 264 269 273 273 274 284 283 278 280 284 276 272 272 273 273 280 283 279 274 276 275 275 277 278 277 277 278 276
286 284 287 290 286 276 274 273 275 280 280 279 285 287 283 281 277 277 277 278 280 279 278 276 274 272 274 275 275 275 274 275 274 275 277 277 277 276 277 277 278 279 280 278
Height
1491 1488 1487 1487 1486 1487 1489 1488 1488 1477 1473 1468 1468 1468 1468 1469 1470 1472 1473 1474 1476 1477 1479 1480 1481 1482 1483 1484 1484 1485 1485 1485 1485 1484 1484 1484 1484 1484 1484 1484 1484 1484 1483 1483
1491 1486 1485 1485 1481 1481 1481 1480 1478 1474 1471 1464 1465 1465 1466 1467 1468 1469 1470 1472 1473 1475 1476 1477 1478 1479 1480 1480 1481 1481 1481 1481 1481 1481 1481 1481 1481 1481 1481 1481 1480 1480 1479 1479
1493 1484 1484 1483 1471 1472 1472 1470 1470 1472 1467 1463 1464 1464 1464 1465 1466 1467 1468 1469 1471 1472 1473 1474 1475 1476 1477 1477 1477 1477 1477 1477 1477 1477 1477 1477 1477 1477 1477 1477 1476 1476 1475 1474
1493 1489 1490 1468 1462 1461 1463 1462 1463 1462 1461 1461 1462 1462 1463 1463 1464 1465 1466 1467 1468 1469 1470 1471 1472 1473 1473 1474 1474 1474 1474 1474 1474 1474 1474 1474 1474 1473 1473 1473 1472 1471 1471 1470
1492 1490 1477 1464 1462 1461 1463 1462 1458 1459 1459 1460 1460 1461 1461 1462 1462 1463 1464 1465 1466 1467 1468 1468 1469 1469 1470 1470 1470 1470 1470 1471 1471 1471 1470 1470 1470 1469 1469 1468 1467 1467 1466 1464
1488 1487 1478 1463 1461 1459 1462 1464 1458 1457 1458 1459 1460 1464 1462 1460 1460 1461 1462 1462 1463 1464 1465 1465 1466 1466 1466 1466 1467 1467 1467 1467 1468 1467 1467 1466 1466 1465 1464 1464 1463 1462 1460 1459
1487 1483 1471 1461 1460 1462 1467 1463 1458 1457 1457 1458 1459 1461 1460 1459 1459 1459 1460 1461 1461 1462 1462 1462 1463 1463 1463 1463 1463 1464 1464 1464 1464 1463 1463 1462 1461 1461 1460 1459 1458 1457 1455 1454
1482 1481 1473 1461 1461 1462 1461 1458 1457 1457 1457 1457 1457 1457 1457 1457 1457 1458 1458 1458 1459 1459 1459 1459 1460 1460 1460 1460 1460 1460 1460 1460 1460 1459 1459 1458 1457 1456 1455 1454 1453 1451 1449 1448
1468 1466 1459 1457 1457 1457 1457 1456 1456 1456 1456 1456 1455 1455 1455 1455 1455 1455 1455 1456 1456 1456 1456 1456 1456 1456 1456 1456 1456 1456 1456 1456 1456 1455 1455 1454 1453 1451 1450 1449 1448 1446 1444 1442
1462 1457 1455 1455 1454 1455 1455 1454 1454 1454 1453 1453 1453 1452 1452 1452 1452 1452 1452 1452 1452 1452 1452 1452 1452 1452 1452 1452 1452 1452 1452 1451 1451 1450 1450 1449 1448 1447 1445 1444 1442 1441 1439 1436
1460 1456 1454 1452 1452 1452 1451 1451 1450 1450 1450 1450 1449 1449 1449 1448 1448 1448 1448 1448 1448 1448 1448 1448 1448 1448 1448 1448 1448 1447 1447 1447 1446 1446 1445 1444 1443 1442 1440 1439 1438 1436 1433 1431
1456 1452 1452 1450 1449 1449 1448 1447 1447 1447 1446 1446 1445 1445 1444 1444 1444 1444 1443 1443 1443 1443 1443 1443 1443 1442 1443 1443 1443 1443 1442 1442 1441 1441 1440 1438 1437 1436 1434 1434 1432 1430 1428 1426
1449 1448 1447 1446 1445 1445 1444 1444 1443 1442 1441 1441 1440 1440 1439 1439 1439 1439 1438 1438 1438 1438 1438 1438 1437 1437 1438 1438 1438 1438 1437 1437 1436 1435 1434 1433 1432 1430 1428 1427 1425 1424 1422 1420
1444 1443 1442 1441 1441 1440 1440 1439 1438 1437 1436 1436 1435 1435 1434 1434 1434 1433 1433 1433 1433 1433 1433 1433 1433 1433 1433 1433 1433 1433 1432 1432 1431 1430 1429 1428 1426 1425 1423 1420 1418 1416 1415 1414
1439 1439 1438 1436 1436 1435 1434 1434 1433 1432 1431 1431 1431 1430 1430 1429 1429 1429 1429 1429 1429 1428 1428 1428 1428 1428 1429 1429 1428 1428 1427 1427 1426 1425 1424 1422 1421 1419 1417 1415 1413 1410 1408 1406
1434 1433 1432 1432 1431 1430 1430 1429 1428 1427 1427 1426 1426 1425 1425 1425 1425 1424 1424 1425 1425 1424 1424 1424 1424 1424 1424 1424 1423 1422 1422 1421 1420 1419 1418 1417 1415 1413 1411 1409 1407 1405 1402 1400
1429 1428 1428 1427 1426 1426 1425 1425 1424 1423 1422 1422 1421 1421 1421 1421 1420 1420 1420 1421 1421 1420 1420 1420 1420 1419 1419 1419 1418 1417 1417 1416 1415 1414 1413 1411 1409 1407 1405 1403 1401 1399 1397 1395
1426 1425 1424 1424 1423 1422 1421 1420 1420 1419 1419 1418 1418 1417 1417 1417 1417 1417 1417 1417 1416 1416 1416 1416 1415 1415 1414 1414 1413 1412 1411 1410 1409 1408 1407 1405 1403 1401 1399 1397 1395 1393 1390 1389
1422 1421 1420 1419 1419 1418 1418 1417 1416 1416 1416 1415 1415 1414 1414 1414 1414 1414 1413 1413 1412 1412 1412 1411 1411 1410 1410 1409 1408 1407 1406 1405 1403 1402 1401 1399 1397 1395 1394 1391 1389 1387 1385 1382
1419 1419 1418 1417 1416 1416 1415 1414 1414 1413 1413 1413 1412 1412 1412 1412 1411 1411 1410 1410 1409 1409 1408 1407 1406 1406 1405 1404 1403 1401 1400 1399 1398 1396 1395 1393 1391 1389 1387 1385 1383 1381 1379 1377
1418 1417 1416 1416 1415 1414 1414 1413 1412 1411 1411 1411 1410 1410 1409 1409 1409 1408 1407 1406 1406 1405 1404 1403 1402 1401 1400 1399 1398 1396 1395 1393 1392 1390 1389 1387 1385 1383 1381 1379 1377 1375 1373 1370
1416 1416 1415 1414 1413 1412 1412 1411 1410 1410 1409 1409 1408 1408 1407 1406 1406 1405 1404 1403 1402 1401 1400 1399 1398 1397 1395 1394 1392 1391 1389 1388 1386 1385 1383 1381 1379 1377 1375 1373 1371 1368 1366 1364
1415 1414 1413 1412 1411 1410 1410 1409 1408 1408 1407 1406 1405 1405 1404 1403 1402 1401 1400 1399 1398 1397 1396 1394 1393 1392 1390 1388 1387 1385 1383 1382 1380 1379 1377 1375 1373 1371 1369 1366 1364 1362 1360 1358
1413 1412 1411 1410 1409 1408 1407 1406 1406 1405 1404 1403 1402 1402 1401 1399 1398 1397 1396 1395 1394 1392 1391 1390 1388 1386 1385 1383 1381 1379 1377 1376 1374 1372 1371 1369 1367 1365 1363 1360 1358 1356 1354 1352
1411 1410 1409 1408 1406 1405 1404 1403 1402 1401 1400 1399 1399 1398 1397 1395 1394 1392 1391 1390 1389 1387 1386 1384 1383 1381 1379 1377 1375 1373 1371 1370 1368 1366 1364 1362 1360 1358 1356 1354 1352 1350 1348 1346
1408 1407 1405 1405 1403 1402 1401 1400 1398 1397 1396 1395 1394 1393 1392 1390 1389 1387 1386 1385 1383 1382 1380 1378 1377 1375 1373 1371 1369 1367 1365 1364 1362 1360 1358 1356 1354 1352 1350 1348 1346 1345 1343 1341
1404 1403 1402 1401 1399 1398 1397 1396 1394 1393 1392 1390 1389 1388 1387 1385 1384 1382 1381 1379 1377 1376 1374 1372 1370 1369 1367 1365 1363 1361 1359 1357 1356 1354 1352 1350 1348 1346 1344 1343 1341 1339 1337 1336